Osceola, WI

4:11 AM CDT on September 30, 2016 (GMT -0500)
Simenstad Municipal

Weather History for KOEO - May, 2013

Change the Weather History Date:

Thursday, May 30, 2013

  Actual Average (KMSP) Record (KMSP)
Temperature  
Mean Temperature 70 °F 63 °F  
Max Temperature 78 °F 74 °F 98 °F (1934)
Min Temperature 63 °F 53 °F 37 °F (1947)
Degree Days  
Heating Degree Days 0 4  
Month to date heating degree days 214  
Since 1 July heating degree days 7532  
Cooling Degree Days 5 2  
Month to date cooling degree days 36  
Year to date cooling degree days 41  
Growing Degree Days 20 (Base 50)    
Moisture  
Dew Point 63 °F    
Average Humidity 81    
Maximum Humidity 97    
Minimum Humidity 59    
Precipitation  
Precipitation 0.46 in 0.12 in 2.04 in (1877)
Month to date precipitation 3.25  
Year to date precipitation 9.47  
Snow  
Snow 0.00 in 0.00 in 0.00 in ()
Month to date snowfall 0.0  
Since 1 July snowfall 54.4  
Snow Depth -    
Sea Level Pressure  
Sea Level Pressure 29.64 in    
Wind  
Wind Speed 12 mph (SSE)    
Max Wind Speed 23 mph    
Max Gust Speed 29 mph    
Visibility 10 miles    
Events Rain    
T = Trace of Precipitation, MM = Missing Value Source: NWS Daily Summary

Daily Weather History Graph

Daily Weather History Graph

Search for Another Location

Airport or City:

Trip Planner

Search our weather history database for the weather conditions in past years. The results will help you decide how hot, cold, wet, or windy it might be!

Date:

Astronomy

May. 30, 2013 Rise Set
Actual Time 5:27 AM CDT 8:50 PM CDT
Civil Twilight 4:50 AM CDT 9:26 PM CDT
Nautical Twilight 4:03 AM CDT 10:14 PM CDT
Astronomical Twilight 3:02 AM CDT 11:15 PM CDT
Moon 12:41 AM CDT 11:47 AM CDT
Length of Visible Light 16h 35m
Length of Day
15h 22m
Waning Gibbous, 62% of the Moon is Illuminated
May 30
Waning Gibbous
May 31
Last Quarter
Jun 8
New
Jun 16
First Quarter
Jun 23
Full

Hourly Weather History & Observations

Time (CDT) Temp. Dew Point Humidity Pressure Visibility Wind Dir Wind Speed Gust Speed Precip Events Conditions
12:15 AM 64.0 °F 62.6 °F 95% 29.76 in 10.0 mi SSE 8.1 mph - N/A Rain Light Rain
12:35 AM 63.9 °F 62.6 °F 96% 29.73 in 5.0 mi SE 12.7 mph 18.4 mph 0.13 in Rain Rain
12:55 AM 64.0 °F 62.4 °F 94% 29.74 in 7.0 mi SE 10.4 mph 17.3 mph 0.19 in Rain Heavy Rain
1:15 AM 64.0 °F 62.6 °F 95% 29.72 in 10.0 mi ESE 10.4 mph 17.3 mph 0.01 in Rain Light Rain
1:35 AM 64.0 °F 62.2 °F 94% 29.72 in 7.0 mi SE 12.7 mph 17.3 mph 0.07 in Rain Heavy Rain
1:55 AM 64.2 °F 62.2 °F 93% 29.71 in 10.0 mi ESE 9.2 mph 18.4 mph 0.08 in   Overcast
2:15 AM 64.0 °F 62.4 °F 94% 29.73 in 7.0 mi SE 9.2 mph - 0.03 in Rain Heavy Rain
2:35 AM 63.5 °F 62.6 °F 97% 29.71 in 10.0 mi SE 10.4 mph - 0.10 in Rain Light Rain
2:55 AM 63.9 °F 62.6 °F 96% 29.70 in 10.0 mi SE 10.4 mph - 0.10 in   Mostly Cloudy
3:15 AM 64.2 °F 62.6 °F 94% 29.69 in 10.0 mi SE 10.4 mph - N/A Rain Rain
3:35 AM 64.8 °F 63.1 °F 94% 29.68 in 10.0 mi SE 15.0 mph 19.6 mph 0.01 in Rain Light Rain
3:55 AM 64.9 °F 63.5 °F 95% 29.67 in 10.0 mi SE 11.5 mph - 0.01 in   Scattered Clouds
4:15 AM 64.9 °F 63.1 °F 94% 29.67 in 10.0 mi SE 11.5 mph 18.4 mph N/A   Clear
4:35 AM 65.3 °F 63.1 °F 93% 29.66 in 10.0 mi SE 10.4 mph - N/A   Clear
4:55 AM 64.8 °F 63.0 °F 94% 29.65 in 10.0 mi SE 11.5 mph - N/A   Clear
5:15 AM 64.8 °F 63.0 °F 94% 29.64 in 10.0 mi SE 11.5 mph 18.4 mph N/A   Clear
5:35 AM 65.3 °F 63.0 °F 92% 29.64 in 10.0 mi SE 13.8 mph 20.7 mph N/A   Scattered Clouds
5:55 AM 65.3 °F 63.1 °F 93% 29.64 in 10.0 mi SE 13.8 mph 19.6 mph N/A   Clear
6:15 AM 65.5 °F 63.1 °F 92% 29.64 in 10.0 mi SE 12.7 mph 18.4 mph N/A   Clear
6:35 AM 65.7 °F 63.3 °F 92% 29.64 in 10.0 mi SE 11.5 mph 17.3 mph N/A   Clear
6:55 AM 66.2 °F 63.5 °F 91% 29.64 in 10.0 mi SE 13.8 mph - N/A   Clear
7:15 AM 67.8 °F 64.4 °F 89% 29.64 in 10.0 mi SE 12.7 mph - N/A   Clear
7:35 AM 68.0 °F 64.4 °F 88% 29.64 in 10.0 mi SE 15.0 mph 20.7 mph N/A   Clear
7:55 AM 68.2 °F 64.4 °F 88% 29.63 in 10.0 mi SE 15.0 mph 20.7 mph N/A   Clear
8:15 AM 70.2 °F 64.9 °F 83% 29.64 in 10.0 mi SSE 18.4 mph 23.0 mph N/A   Clear
8:35 AM 70.9 °F 64.6 °F 80% 29.64 in 10.0 mi SE 19.6 mph 28.8 mph N/A   Scattered Clouds
8:55 AM 70.3 °F 64.4 °F 81% 29.65 in 10.0 mi SSE 18.4 mph 26.5 mph N/A   Mostly Cloudy
9:15 AM 72.0 °F 64.9 °F 78% 29.65 in 10.0 mi SSE 17.3 mph 24.2 mph N/A   Overcast
9:35 AM 73.6 °F 65.5 °F 76% 29.66 in 10.0 mi SSE 15.0 mph 26.5 mph N/A   Scattered Clouds
9:55 AM 73.9 °F 64.6 °F 72% 29.66 in 10.0 mi SSE 23.0 mph 28.8 mph N/A   Mostly Cloudy
10:15 AM 72.9 °F 63.3 °F 72% 29.65 in 10.0 mi SSE 16.1 mph 28.8 mph N/A   Overcast
10:35 AM 72.5 °F 64.2 °F 75% 29.64 in 10.0 mi SSE 15.0 mph 23.0 mph N/A   Overcast
10:55 AM 72.7 °F 64.2 °F 75% 29.64 in 10.0 mi SSE 15.0 mph 24.2 mph N/A   Overcast
11:15 AM 72.1 °F 64.0 °F 76% 29.65 in 10.0 mi SSE 17.3 mph 21.9 mph N/A   Overcast
11:35 AM 72.9 °F 62.8 °F 71% 29.66 in 10.0 mi South 19.6 mph 25.3 mph N/A   Overcast
11:55 AM 71.6 °F 62.1 °F 72% 29.67 in 10.0 mi South 18.4 mph 23.0 mph N/A   Overcast
12:15 PM 70.9 °F 62.6 °F 75% 29.67 in 10.0 mi South 13.8 mph 20.7 mph N/A   Overcast
12:35 PM 71.1 °F 63.0 °F 75% 29.66 in 10.0 mi South 11.5 mph 17.3 mph N/A   Overcast
12:55 PM 72.5 °F 63.1 °F 72% 29.67 in 10.0 mi South 17.3 mph 21.9 mph N/A   Overcast
1:15 PM 72.9 °F 63.3 °F 72% 29.66 in 10.0 mi South 15.0 mph 20.7 mph N/A   Overcast
1:35 PM 72.7 °F 62.8 °F 71% 29.66 in 10.0 mi South 16.1 mph 20.7 mph N/A   Overcast
1:55 PM 74.3 °F 62.6 °F 67% 29.65 in 10.0 mi South 15.0 mph 19.6 mph N/A   Mostly Cloudy
2:15 PM 74.7 °F 62.2 °F 65% 29.64 in 10.0 mi SSE 16.1 mph 20.7 mph N/A   Mostly Cloudy
2:35 PM 74.1 °F 61.3 °F 64% 29.64 in 10.0 mi South 12.7 mph - N/A   Mostly Cloudy
2:55 PM 76.5 °F 61.9 °F 61% 29.63 in 10.0 mi South 13.8 mph - N/A   Scattered Clouds
3:15 PM 76.6 °F 61.2 °F 59% 29.62 in 10.0 mi South 12.7 mph - N/A   Scattered Clouds
3:35 PM 75.7 °F 61.7 °F 62% 29.61 in 10.0 mi SSE 12.7 mph 19.6 mph N/A   Mostly Cloudy
3:55 PM 77.0 °F 61.9 °F 59% 29.61 in 10.0 mi SSE 12.7 mph 24.2 mph N/A   Mostly Cloudy
4:15 PM 76.5 °F 61.5 °F 60% 29.60 in 10.0 mi SSE 12.7 mph - N/A   Mostly Cloudy
4:35 PM 75.2 °F 61.7 °F 63% 29.60 in 10.0 mi SSE 10.4 mph - N/A   Overcast
4:55 PM 74.8 °F 62.1 °F 64% 29.59 in 10.0 mi South 12.7 mph 18.4 mph N/A   Overcast
5:15 PM 75.4 °F 61.7 °F 62% 29.59 in 10.0 mi SSE 10.4 mph - N/A   Overcast
5:35 PM 74.7 °F 62.8 °F 66% 29.59 in 10.0 mi SSE 9.2 mph - N/A   Overcast
5:55 PM 74.5 °F 62.6 °F 66% 29.59 in 10.0 mi SSE 11.5 mph 18.4 mph N/A   Overcast
6:15 PM 73.8 °F 62.1 °F 67% 29.59 in 10.0 mi SSE 13.8 mph 20.7 mph N/A   Overcast
6:35 PM 73.4 °F 62.4 °F 68% 29.58 in 10.0 mi SSE 15.0 mph 21.9 mph N/A   Overcast
6:55 PM 72.5 °F 62.4 °F 71% 29.57 in 10.0 mi SSE 12.7 mph - N/A   Overcast
7:15 PM 72.5 °F 62.8 °F 71% 29.57 in 10.0 mi SSE 15.0 mph 23.0 mph N/A   Overcast
7:35 PM 72.0 °F 61.9 °F 70% 29.58 in 10.0 mi SSE 15.0 mph 20.7 mph N/A   Overcast
7:55 PM 70.2 °F 61.2 °F 73% 29.58 in 10.0 mi SSE 10.4 mph - N/A   Overcast
8:15 PM 68.9 °F 61.9 °F 78% 29.59 in 10.0 mi SE 12.7 mph - N/A Rain Rain
8:35 PM 65.8 °F 63.3 °F 92% 29.59 in 5.0 mi SSE 11.5 mph - 0.05 in Rain Rain
8:55 PM 64.8 °F 63.0 °F 94% 29.58 in 7.0 mi SSE 10.4 mph - 0.08 in Rain Light Rain
9:15 PM 64.8 °F 63.1 °F 94% 29.58 in 10.0 mi SE 8.1 mph - N/A   Light Drizzle
9:35 PM 65.3 °F 63.1 °F 93% 29.58 in 10.0 mi ESE 9.2 mph - N/A   Overcast
9:55 PM 64.8 °F 63.5 °F 96% 29.58 in 10.0 mi SE 10.4 mph - N/A   Overcast
10:15 PM 65.3 °F 63.5 °F 94% 29.59 in 10.0 mi SE 6.9 mph - N/A   Overcast
10:35 PM 65.3 °F 63.5 °F 94% 29.59 in 10.0 mi SSE 9.2 mph - N/A   Overcast
10:55 PM 65.3 °F 63.5 °F 94% 29.59 in 10.0 mi SSE 10.4 mph - N/A   Mostly Cloudy
11:15 PM 65.5 °F 63.7 °F 94% 29.59 in 10.0 mi SSE 9.2 mph - N/A   Overcast
11:35 PM 65.8 °F 64.0 °F 94% 29.59 in 10.0 mi South 11.5 mph - N/A Rain Light Rain
11:55 PM 65.7 °F 63.7 °F 93% 29.59 in 10.0 mi SSE 11.5 mph - N/A   Overcast